Location: Borotín
(49.5055°N, 14.6142°E)
Time: 06:17:00
(UTC+00:00)

Cosmos 304 Rocket - Pass Details

Date: 27 May 2022
Orbit: 679 x 686 km, 74.0° (Epoch: 28 June)

Event Time Altitude Azimuth Distance (km) Brightness Sun altitude
Exits shadow 00:15:49 32° 204° (SSW) 1,172 4.4 -17.2°
Maximum altitude 00:18:04 88° 290° (WNW) 694 3.7 -17.1°
Drops below altitude 10° 00:22:55 10° 23° (NNE) 2,146 7.7 -16.8°
Sets 00:25:14 0° 24° (NNE) 3,067 8.9 -16.7°
